[[{"header":{"parameterUnit":"m.s-1","parameterCategory":1,"la1":30.2991,"la2":30.254,"lo1":-89.0895,"lo2":-89.0444,"dx":0.0017,"dy":0.0017,"nx":28,"ny":28,"refTime":"2023-01-02T15:00:00:Z","depth":0,"parameterNumber":2,"parameterNumberName":"U-component_of_WINDS"},"data":[0,0,0,0,0,0,0,0,0,0,0,0,0,0,0,0,0,0,0,0,0,0,0,0,0,0,0,0,0,0,0,0,0,0,0,0,0,0,0,0,0,0,0,0,0,0,0,0,0,0,0,0,0,0,0,0,0,0,1.3374,1.3374,0,1.3369,1.3368,1.3368,1.3337,1.3337,1.3336,1.3335,1.3331,1.3332,1.3332,0,0,0,0,0,0,0,0,0,0,0,0,0,1.3357,1.3358,1.3374,1.3374,1.3374,1.3369,1.3368,1.3368,1.3338,1.3337,1.3336,1.3335,1.3331,1.3331,1.3332,0,0,0,0,0,0,0,0,0,0,0,0,0,1.336,1.3358,1.3374,1.3358,1.3356,1.3369,1.3368,1.3368,1.3338,1.3337,1.3336,1.3334,1.3331,1.3331,1.3332,1.336,0,0,1.3335,1.3335,0,0,0,0,0,0,0,0,1.3359,1.336,1.336,1.3359,1.3357,1.3352,1.3361,1.3366,1.3338,1.3345,1.3335,1.3334,1.3339,1.3339,1.3341,1.336,1.336,1.3335,1.3336,1.3336,1.3336,0,0,0,0,0,0,0,1.3359,1.336,1.3372,1.336,1.3358,1.3351,1.335,1.3362,1.3348,1.3344,1.3342,1.3342,1.3338,1.334,1.334,1.336,1.3335,1.3336,1.3336,1.3337,1.3402,1.3403,0,0,0,0,0,0,1.3361,1.336,1.3372,1.3371,1.3355,1.3352,1.3351,1.3355,1.3348,1.3346,1.3343,1.334,1.3339,1.3339,1.334,1.3372,1.3336,1.3337,1.3337,1.3401,1.3402,1.3403,0,0,0,0,0,0,1.3361,1.3363,1.3372,1.3365,1.3366,1.3353,1.3358,1.3356,1.3357,1.3347,1.3344,1.3347,1.3338,1.3339,1.3355,1.3372,1.3337,1.3338,1.3399,1.3401,1.3403,1.3437,0,0,0,0,0,0,1.3361,1.3363,1.3373,1.3366,1.3366,1.3387,1.3359,1.3356,1.3359,1.3356,1.335,1.3348,1.3337,1.3354,1.3356,1.3372,1.3339,1.3398,1.34,1.3402,1.3435,1.344,1.3445,0,0,0,0,0,1.336,1.3383,1.3374,1.3375,1.3379,1.3388,1.3389,1.3375,1.336,1.3371,1.3364,1.3349,1.337,1.3356,1.3358,1.3375,1.3396,1.3399,1.3402,1.3432,1.3439,1.3445,0,0,0,0,0,0,1.3393,1.3382,1.3371,1.3393,1.3392,1.3383,1.3396,1.3383,1.3386,1.3383,1.3366,1.3365,1.3384,1.3381,1.3366,1.3402,1.338,1.3384,1.3403,1.3409,1.3414,1.3415,1.3339,0,0,0,0,0,1.3403,1.3411,1.3401,1.3421,1.3421,1.3408,1.3412,1.3402,1.34,1.3399,1.3394,1.3393,1.3399,1.3404,1.3409,1.3434,1.3432,1.3446,1.3452,1.3456,1.3459,1.3472,1.3478,1.3412,1.3412,1.3412,0,0,1.3423,1.3418,1.3424,1.3427,1.3425,1.3434,1.3408,1.3419,1.3426,1.3401,1.3416,1.3412,1.341,1.3431,1.344,1.3429,1.3477,1.3459,1.3463,1.3463,1.3475,1.3481,1.3487,1.3414,1.3414,1.3413,0,0,1.3465,1.3462,1.3478,1.3476,1.3473,1.3465,1.3469,1.3462,1.3458,1.3473,1.3455,1.3463,1.3474,1.3474,1.3475,1.3516,1.3502,1.3518,1.3545,1.3557,1.3563,1.3567,1.3582,1.3588,1.3521,1.3521,1.3521,0,1.349,1.3503,1.3488,1.35,1.3501,1.3479,1.3496,1.3495,1.3494,1.3496,1.3484,1.3498,1.3495,1.3515,1.3525,1.3527,1.3531,1.3519,1.3563,1.3567,1.3571,1.3585,1.3591,1.3523,1.3523,1.3523,1.3523,0,1.3534,1.3544,1.3557,1.3557,1.356,1.3574,1.3561,1.3566,1.3556,1.3549,1.3564,1.356,1.3564,1.3568,1.3558,1.3587,1.358,1.3566,1.3544,1.358,1.3593,1.3598,1.3526,1.3526,1.3525,1.3524,0,0,1.3597,1.3587,1.3593,1.3592,1.3587,1.3594,1.3608,1.3611,1.3616,1.3616,1.3627,1.3637,1.3624,1.3625,1.3615,1.3626,1.3659,1.361,1.361,1.3619,1.3691,1.3702,1.3708,1.365,1.3651,1.3651,1.3691,0,1.3636,1.3658,1.3645,1.3669,1.3677,1.3656,1.3668,1.3666,1.366,1.3666,1.366,1.3667,1.3649,1.3649,1.3659,1.3653,1.3673,1.365,1.366,1.366,1.3661,1.3715,1.3727,1.3765,1.3696,1.3697,1.3698,0,1.3686,1.3688,1.3713,1.3706,1.3709,1.372,1.3722,1.3728,1.3726,1.3721,1.3723,1.3709,1.3722,1.3701,1.3718,1.3703,1.3706,1.3703,1.3704,1.3705,1.3681,1.3717,1.3776,1.3782,1.3705,1.3705,1.3704,0,1.3729,1.3738,1.3754,1.3754,1.3747,1.3755,1.3752,1.3749,1.3752,1.3755,1.3756,1.376,1.3762,1.3766,1.3754,1.3739,1.3773,1.375,1.3769,1.3769,1.3777,1.3777,1.3838,1.3779,1.3779,1.3779,1.3779,0,1.3774,1.379,1.3773,1.3783,1.38,1.3785,1.3802,1.3798,1.3795,1.3804,1.3786,1.3795,1.3778,1.3786,1.3776,1.3792,1.3793,1.379,1.3787,1.3791,1.3792,1.3793,1.379,1.3781,1.378,1.378,1.378,0,1.3825,1.3814,1.383,1.3822,1.3821,1.3834,1.3827,1.3836,1.3829,1.384,1.3842,1.383,1.3838,1.3826,1.3832,1.3826,1.3848,1.3842,1.3849,1.3847,1.3866,1.3865,1.393,1.3938,1.3875,1.3875,1.3876,0,1.3855,1.3867,1.386,1.3865,1.3863,1.3871,1.3874,1.3859,1.3863,1.3862,1.3871,1.3877,1.3881,1.3894,1.3886,1.3891,1.3884,1.3907,1.3885,1.3889,1.3884,1.3884,1.3885,1.3911,1.3912,1.3913,1.3913,0,1.3909,1.3903,1.3908,1.3912,1.3916,1.3918,1.3918,1.3923,1.3908,1.3913,1.392,1.3923,1.393,1.3936,1.3939,1.3936,1.3922,1.392,1.3925,1.3929,1.3933,1.3931,1.3861,1.3919,1.3918,1.3918,1.3918,1.3917,1.395,1.396,1.3957,1.3963,1.3962,1.3963,1.3971,1.3965,1.3971,1.3974,1.3965,1.3975,1.3973,1.3975,1.3974,1.3982,1.3972,1.3978,1.398,1.3982,1.3985,1.3932,1.3982,1.3982,1.3982,1.3982,1.3981,0,1.4004,1.4001,1.4007,1.4008,1.4013,1.3999,1.4,1.4005,1.4013,1.4012,1.4016,1.4025,1.4031,1.4024,1.4028,1.4036,1.403,1.4037,1.4037,1.4036,1.3993,1.3989,1.4042,1.4042,1.4042,1.4042,1.4042,1.4042,1.4032,1.4047,1.4041,1.4056,1.4053,1.4062,1.4063,1.4064,1.4063,1.4073,1.4078,1.4073,1.407,1.4074,1.4079,1.4077,1.408,1.409,1.4086,1.4045,1.4039,1.4034,1.403,1.4091,1.4091,1.4128,1.4128,1.4129]},{"header":{"parameterUnit":"m.s-1","parameterCategory":1,"la1":30.2991,"la2":30.254,"lo1":-89.0895,"lo2":-89.0444,"dx":0.0017,"dy":0.0017,"nx":28,"ny":28,"refTime":"2023-01-02T15:00:00:Z","depth":0,"parameterNumber":3,"parameterNumberName":"V-component_of_WINDS"},"data":[0,0,0,0,0,0,0,0,0,0,0,0,0,0,0,0,0,0,0,0,0,0,0,0,0,0,0,0,0,0,0,0,0,0,0,0,0,0,0,0,0,0,0,0,0,0,0,0,0,0,0,0,0,0,0,0,0,0,6.1504,6.1506,0,6.1659,6.1661,6.1662,6.1663,6.1661,6.1659,6.1657,6.1814,6.182,6.1826,0,0,0,0,0,0,0,0,0,0,0,0,0,6.1209,6.1215,6.1504,6.1506,6.1508,6.1659,6.1661,6.1663,6.1663,6.166,6.1658,6.1656,6.1812,6.182,6.1827,0,0,0,0,0,0,0,0,0,0,0,0,0,6.1348,6.1216,6.1504,6.1526,6.153,6.1658,6.1661,6.1663,6.1663,6.166,6.1657,6.1655,6.181,6.1819,6.1828,6.1944,0,0,6.1856,6.186,0,0,0,0,0,0,0,0,6.134,6.1359,6.1521,6.1525,6.1529,6.1638,6.1615,6.1758,6.1664,6.1613,6.1657,6.1653,6.1758,6.1771,6.1807,6.1951,6.1958,6.1856,6.1862,6.1866,6.1868,0,0,0,0,0,0,0,6.133,6.1352,6.1565,6.1523,6.1528,6.1529,6.1545,6.1642,6.17,6.1617,6.1617,6.1636,6.176,6.1798,6.1811,6.1961,6.1856,6.1864,6.187,6.1873,6.221,6.2213,0,0,0,0,0,0,6.1316,6.1344,6.1561,6.157,6.1425,6.1536,6.1555,6.1606,6.1699,6.1711,6.1638,6.1635,6.1784,6.18,6.1816,6.196,6.1866,6.1874,6.188,6.2207,6.2211,6.2214,0,0,0,0,0,0,6.131,6.1336,6.1554,6.1457,6.1485,6.1545,6.1603,6.1611,6.1649,6.1715,6.1726,6.1667,6.1782,6.1803,6.1913,6.1965,6.1878,6.1887,6.2202,6.2208,6.2213,6.2248,0,0,0,0,0,0,6.1301,6.1333,6.1378,6.1458,6.149,6.1648,6.1606,6.1616,6.1665,6.1663,6.1745,6.1755,6.1782,6.1899,6.1922,6.1976,6.1894,6.2198,6.2205,6.2211,6.2242,6.2253,6.2263,0,0,0,0,0,6.1291,6.1381,6.138,6.1406,6.1547,6.1651,6.167,6.1698,6.1669,6.1715,6.1758,6.1753,6.1956,6.191,6.1936,6.1994,6.2195,6.2203,6.221,6.2237,6.2251,6.2263,0,0,0,0,0,0,6.1305,6.1392,6.1392,6.1511,6.1574,6.1651,6.171,6.1712,6.1784,6.1779,6.181,6.1829,6.1939,6.1977,6.1925,6.2112,6.2072,6.2085,6.2083,6.2097,6.2107,6.2097,6.1901,0,0,0,0,0,6.1322,6.1399,6.1471,6.1569,6.16,6.165,6.1696,6.1712,6.1779,6.1805,6.1856,6.192,6.1999,6.205,6.2125,6.2247,6.2266,6.23,6.231,6.2318,6.233,6.2399,6.2415,6.224,6.224,6.224,0,0,6.1358,6.1415,6.1461,6.1573,6.1624,6.1704,6.1672,6.1757,6.1817,6.1818,6.1925,6.1964,6.2038,6.2155,6.2209,6.219,6.2382,6.2328,6.2334,6.2342,6.2409,6.2425,6.244,6.2246,6.2245,6.2244,0,0,6.1464,6.1514,6.1602,6.1654,6.1732,6.1764,6.1785,6.1863,6.1889,6.1997,6.2,6.2071,6.2205,6.2258,6.2303,6.243,6.243,6.2454,6.251,6.2576,6.259,6.2603,6.265,6.2666,6.2465,6.2465,6.2465,0,6.1499,6.1619,6.1647,6.1734,6.1783,6.1789,6.1879,6.1927,6.2025,6.2059,6.2037,6.2207,6.2257,6.2387,6.2418,6.2453,6.2479,6.2446,6.2586,6.2599,6.2611,6.2656,6.2674,6.2468,6.2467,6.2467,6.2467,0,6.1659,6.1742,6.1804,6.19,6.1956,6.2043,6.2085,6.2139,6.2151,6.2185,6.2296,6.2356,6.2445,6.2476,6.2488,6.2609,6.2595,6.2579,6.2539,6.263,6.2673,6.269,6.2472,6.2471,6.247,6.2469,0,0,6.1779,6.1889,6.1912,6.1956,6.2042,6.2107,6.2195,6.2283,6.2329,6.2396,6.2472,6.2585,6.2571,6.2622,6.264,6.2698,6.2798,6.2675,6.2678,6.2698,6.2936,6.2949,6.2968,6.2797,6.28,6.2803,6.293,0,6.1895,6.2053,6.2081,6.2219,6.2297,6.2303,6.238,6.2442,6.2476,6.2548,6.2586,6.2667,6.2641,6.2672,6.273,6.2773,6.2846,6.2764,6.2868,6.2872,6.2851,6.2991,6.3005,6.3122,6.2947,6.295,6.2952,0,6.2053,6.2126,6.2271,6.2348,6.2382,6.2451,6.2534,6.2602,6.2672,6.2693,6.275,6.2762,6.2854,6.2809,6.2937,6.2881,6.2925,6.2952,6.2957,6.297,6.2919,6.3008,6.316,6.3178,6.2979,6.2977,6.2975,0,6.2128,6.2262,6.2367,6.2404,6.2496,6.2545,6.2586,6.2653,6.2704,6.2776,6.281,6.2892,6.2937,6.3,6.3034,6.2997,6.316,6.3117,6.3181,6.318,6.3216,6.3214,6.3379,6.3242,6.3241,6.3241,6.3241,0,6.2257,6.2346,6.2402,6.2467,6.2567,6.2599,6.2698,6.2737,6.2797,6.287,6.2879,6.2947,6.2987,6.3061,6.3087,6.319,6.321,6.323,6.3237,6.3231,6.3228,6.3261,6.3255,6.3246,6.3245,6.3244,6.3243,0,6.2358,6.2399,6.2515,6.2593,6.2615,6.2685,6.2752,6.2816,6.285,6.2942,6.2966,6.302,6.3108,6.3147,6.3255,6.3272,6.3391,6.339,6.3368,6.337,6.3433,6.3427,6.3626,6.3654,6.3496,6.3498,6.3499,0,6.2439,6.2508,6.2594,6.2644,6.2686,6.2766,6.2818,6.2852,6.2907,6.2992,6.3046,6.3133,6.3206,6.3345,6.3395,6.3477,6.348,6.3544,6.3493,6.3485,6.3483,6.348,6.3488,6.3554,6.3555,6.3557,6.3558,0,6.2577,6.2595,6.267,6.2754,6.2817,6.2884,6.295,6.299,6.3034,6.3095,6.3185,6.3241,6.3352,6.344,6.3526,6.3567,6.3571,6.3573,6.3593,6.3588,6.3573,6.3584,6.3395,6.3569,6.3568,6.3567,6.3567,6.3566,6.2672,6.2734,6.2805,6.289,6.2943,6.3005,6.3069,6.3112,6.3188,6.3281,6.3296,6.3393,6.3462,6.3578,6.3623,6.3699,6.3684,6.3711,6.3719,6.3726,6.373,6.356,6.3714,6.3714,6.3714,6.3714,6.3713,0,6.2813,6.2859,6.2937,6.3029,6.3096,6.3093,6.3166,6.3222,6.3307,6.3372,6.3443,6.3547,6.3633,6.3689,6.3775,6.3825,6.3829,6.3847,6.3844,6.3854,6.3738,6.3714,6.3843,6.3843,6.3843,6.3843,6.3842,6.3842,6.2894,6.3,6.3026,6.3159,6.3204,6.33,6.3342,6.3399,6.3451,6.3567,6.3639,6.3675,6.3736,6.3827,6.3906,6.392,6.3952,6.3971,6.3985,6.3876,6.3862,6.385,6.3827,6.3977,6.3978,6.4095,6.4096,6.4097]}]]